Location: Jihlava
(49.4000°N, 15.5830°E)
Time: 07:48:32
(UTC+02:00)

ISS - Visible Passes

Search period start: 25 September 2018 00:00
Search period end: 05 October 2018 00:00
Orbit: 403 x 408 km, 51.6° (Epoch: 25 September)

Date Brightness Start Highest point End Pass type
(mag) Time Alt. Az. Time Alt. Az. Time Alt. Az.
25 Sep -2.6 19:27:45 10° SSW 19:30:36 27° SE 19:33:23 10° E visible
25 Sep -2.9 21:03:35 10° WSW 21:06:04 48° W 21:06:04 48° W visible
26 Sep -3.9 20:11:44 10° WSW 20:15:01 75° SSE 20:16:23 32° ENE visible
26 Sep -0.8 21:48:23 10° W 21:49:04 15° W 21:49:04 15° W visible
27 Sep -3.5 19:19:59 10° SW 19:23:11 50° SSE 19:26:24 10° ENE visible
27 Sep -3.2 20:56:25 10° W 20:59:17 54° NW 20:59:17 54° NW visible
28 Sep -3.7 20:04:27 10° W 20:07:45 74° NNW 20:09:26 26° ENE visible
28 Sep -0.9 21:41:13 10° WNW 21:42:06 17° WNW 21:42:06 17° WNW visible
29 Sep -3.8 19:12:32 10° WSW 19:15:49 85° SSE 19:19:08 10° ENE visible
29 Sep -3.2 20:49:14 10° W 20:52:11 52° NNW 20:52:11 52° NNW visible
30 Sep -3.4 19:57:14 10° W 20:00:31 58° N 20:02:14 25° ENE visible
30 Sep -0.9 21:33:55 10° WNW 21:34:54 18° WNW 21:34:54 18° WNW visible
01 Oct -3.6 19:05:13 10° W 19:08:31 68° NNW 19:11:49 10° ENE visible
01 Oct -3.3 20:41:57 10° WNW 20:44:55 56° NNW 20:44:55 56° NNW visible
02 Oct -3.4 19:49:58 10° WNW 19:53:13 56° N 19:54:55 25° ENE visible
02 Oct -1.0 21:26:33 10° WNW 21:27:35 19° WNW 21:27:35 19° WNW visible
03 Oct -3.4 18:57:56 10° W 19:01:12 56° N 19:04:28 10° ENE visible
03 Oct -3.6 20:34:35 10° WNW 20:37:35 69° NW 20:37:35 69° NW visible
04 Oct -3.6 19:42:36 10° WNW 19:45:53 64° N 19:47:35 25° E visible
04 Oct -1.0 21:19:11 10° WNW 21:20:15 18° W 21:20:15 18° W visible
